Regional Weather Roundup
Issued by NWS Bismarck, ND

Home | Current Version | Previous Version | Text Only | Print | Product List | Glossary On
Versions: 1 2 3 4 5 6 7 8 9 10 11 12 13 14 15 16 17 18 19 20 21 22 23 24 25 26 27 28 29 30 31 32 33 34 35 36 37 38 39 40 41 42 43 44 45 46 47 48 49 50
000
ASUS43 KBIS 221510
RWRBIS

NWR BROADCAST TEXT
NATIONAL WEATHER SERVICE BISMARCK ND
1000 AM CDT WED OCT 22 2014

NOTE: "FAIR" INDICATES FEW OR NO CLOUDS BELOW 12,000 FEET WITH NO
SIGNIFICANT WEATHER AND/OR OBSTRUCTIONS TO VISIBILITY.


CITY           SKY/WX    TMP DP  RH WIND       PRES   REMARKS
WILLISTON      NOT AVBL
MINOT          NOT AVBL
MINOT AFB      NOT AVBL
BISMARCK       NOT AVBL
DICKINSON      NOT AVBL
GARRISON         N/A     52  45  77 W10G22    29.81R
HETTINGER ARPT NOT AVBL
JAMESTOWN      NOT AVBL
$$

CITY           SKY/WX    TMP DP  RH WIND       PRES   REMARKS
GRAND FORKS    NOT AVBL
GRAND FORKS AF NOT AVBL
DEVILS LAKE    NOT AVBL
FARGO          NOT AVBL
$$

CITY           SKY/WX    TMP DP  RH WIND       PRES   REMARKS
BUFFALO          N/A     49  37  63 W13       29.89R
$$

CITY           SKY/WX    TMP DP  RH WIND       PRES   REMARKS
$$




USA.gov is the U.S. government's official web portal to all federal, state and local government web resources and services.